Location: Palomar Mountain Lodge
(33.3110°N, 116.8495°W)
Time: 06:19:30
(UTC-07:00)

MOZHAYETS 4 - Pass Details

Date: 11 April 2026
Orbit: 642 x 659 km, 98.3° (Epoch: 12 May)

Event Time Altitude Azimuth Distance (km) Brightness Sun altitude
Rises 05:21:26 0° 146° (SE) 2,958 11.2 -13.1°
Reaches altitude 10° 05:23:47 10° 137° (SE) 2,049 10.5 -12.6°
Maximum altitude 05:27:50 35° 72° (ENE) 1,054 9.5 -11.8°
Drops below altitude 10° 05:31:52 10° 7° (N) 2,050 10.6 -11.0°
Sets 05:34:13 0° 359° (N) 2,962 11.3 -10.5°
